Погода в Айямонте

Испания     37°13′05″N   7°23′41″W
темп.,
°C
ветер,
м/с
пор.,
м/с
влажн.,
%
обл.,
%
осадки,
мм/ч
давл.,
гПа
погр.,
м
15 мая, сб
сб1523:00+20ссз6125716 0.0 1018314
02:00+17ссз7137013 0.0 1018327
05:00+14ссз512775 0.0 1017234
08:00+14ссз512795 0.0 1018249
11:00+22с78424 0.0 1018544
14:00+29с662311 0.0 10171303
17:00+31ссз551877 0.0 10151873
20:00+28ссз7730100 0.0 10151484
16 мая, вс
вс1623:00+21ссз6145730 0.0 1017352
02:00+18ссз7147061 0.0 1017354
05:00+17ссз7147430 0.0 1016309
08:00+16ссз6137639 0.0 1016306
11:00+24с810430 0.0 1017660
14:00+30с77270 0.0 10161463
17:00+32ссз66240 0.0 10142069
20:00+29ссз993853 0.0 10141473
17 мая, пн
пн1723:00+23ссз8145686 0.0 1016521
02:00+19ссз8156889 0.0 1016443
05:00+16ссз8166435 0.0 1017385
08:00+16ссз6136197 0.0 1018349
11:00+22ссз101243100 0.0 1018722
14:00+29ссз88325 0.0 10181440
17:00+30ссз882975 0.0 10171930
20:00+28ссз883798 0.0 10181584
18 мая, вт
вт1823:00+20сз713625 0.0 1020370
02:00+18ссз713673 0.0 1020358
05:00+15ссз714665 0.0 1020362
08:00+14ссз613475 0.0 1021366
11:00+21с792791 0.0 1022549
14:00+29с66185 0.0 10211401
17:00+32с551452 0.0 10191922
20:00+30ссз76145 0.0 10191821
19 мая, ср
ср1923:00+23ссз714287 0.0 1021404
02:00+19ссз612435 0.0 1021258
05:00+17ссз511432 0.0 1021183
08:00+16ссз47460 0.0 1021129
11:00+26ссв44275 0.0 1021629
14:00+32всв34195 0.0 10191469
17:00+35вюв24185 0.0 10172103
20:00+30ююз35275 0.0 1016528